GW1496 Weather Reports


time (UTC)temp
F
wind
direction
speed
knots
gust
knots
rain 1hr
in
rain 24hr
in
rain mn
in
humidity
%
barometer
mb
20260508121537 41 112 0.0 0.0 0.00 0.00 0.00 88 1008.8
20260508120920 41 90 0.9 0.9 0.00 0.00 0.00 88 1008.8
20260508115710 40 68 1.7 1.7 0.00 0.00 0.00 88 1008.8
20260508115148 40 68 0.9 0.9 0.00 0.00 0.00 89 1008.8
20260508114519 40 68 0.0 0.0 0.00 0.00 0.00 89 1008.8
20260508113930 40 90 0.0 0.0 0.00 0.00 0.00 89 1008.8
20260508113316 40 90 0.9 0.9 0.00 0.00 0.00 90 1008.8
20260508112719 40 112 0.0 0.0 0.00 0.00 0.00 90 1007.7
20260508112143 40 90 0.9 0.9 0.00 0.00 0.00 90 1007.7
20260508111542 40 68 0.0 0.0 0.00 0.00 0.00 90 1007.7
20260508110922 40 68 0.0 0.0 0.00 0.00 0.00 90 1007.7
20260508110326 40 45 0.0 0.0 0.00 0.00 0.00 90 1007.7
20260508105142 40 90 0.0 0.0 0.00 0.00 0.00 90 1007.7
20260508103936 41 112 0.9 0.9 0.00 0.00 0.00 90 1007.7
20260508103338 41 112 0.0 0.0 0.00 0.00 0.00 90 1007.7
20260508102715 41 112 0.0 0.0 0.00 0.00 0.00 90 1007.7
20260508102115 41 112 0.0 0.0 0.00 0.00 0.00 91 1007.7
20260508101512 41 112 1.7 1.7 0.00 0.00 0.00 91 1007.7
20260508100938 41 112 1.7 1.7 0.00 0.00 0.00 90 1007.7
20260508100331 41 112 0.0 0.0 0.00 0.00 0.00 90 1007.7
20260508095748 41 248 0.0 0.0 0.00 0.00 0.00 90 1007.7
20260508095130 41 225 0.0 0.0 0.00 0.00 0.00 90 1007.7
20260508094522 41 225 0.0 0.0 0.00 0.00 0.00 90 1007.7
20260508093943 41 270 0.0 0.0 0.00 0.00 0.00 91 1007.7
20260508092722 41 270 0.0 0.0 0.00 0.00 0.00 91 1006.7
20260508092142 41 270 0.9 0.9 0.00 0.00 0.00 91 1006.7
20260508091528 41 292 0.0 0.0 0.00 0.00 0.00 91 1006.7
20260508090932 42 68 0.0 0.0 0.00 0.00 0.00 91 1006.7
20260508085139 42 68 0.0 0.0 0.00 0.00 0.00 92 1006.7
20260508084547 42 68 0.0 0.0 0.00 0.00 0.00 92 1006.7
20260508083912 42 68 0.0 0.0 0.00 0.00 0.00 92 1006.7
20260508083313 42 68 0.0 0.0 0.00 0.00 0.00 92 1006.7
20260508082735 42 68 0.0 0.0 0.00 0.00 0.00 92 1006.7
20260508082150 42 68 0.0 0.0 0.00 0.00 0.00 92 1006.7
20260508081537 42 90 0.9 0.9 0.00 0.00 0.00 92 1006.7
20260508080328 43 112 0.0 0.0 0.00 0.00 0.00 91 1006.7
20260508075731 43 112 0.0 0.0 0.00 0.00 0.00 92 1006.7
20260508075120 43 112 0.0 0.0 0.00 0.00 0.00 92 1006.7
20260508074529 43 112 0.0 0.0 0.00 0.00 0.00 92 1006.7
20260508073327 43 112 0.0 0.0 0.00 0.00 0.00 92 1006.7
20260508072733 43 112 0.0 0.0 0.00 0.00 0.00 92 1006.7
20260508072115 43 112 0.0 0.0 0.00 0.00 0.00 92 1006.7
20260508071537 43 90 0.0 0.0 0.00 0.00 0.00 92 1006.7
20260508070950 43 90 0.0 0.0 0.00 0.00 0.00 92 1006.7
20260508070338 43 90 0.9 0.9 0.00 0.00 0.00 92 1006.7
20260508065738 43 90 0.9 0.9 0.00 0.00 0.00 92 1006.7
20260508065133 44 68 0.0 0.0 0.00 0.00 0.00 92 1006.7
20260508064520 44 90 0.9 0.9 0.00 0.00 0.00 92 1006.7
20260508063925 44 90 0.0 0.0 0.00 0.00 0.00 92 1006.7
20260508063318 44 112 0.9 0.9 0.00 0.00 0.00 92 1006.7
20260508062742 44 112 1.7 1.7 0.00 0.00 0.00 92 1006.7
20260508062146 44 202 0.0 0.0 0.00 0.00 0.00 93 1006.7
20260508061530 44 202 0.0 0.0 0.00 0.00 0.00 93 1006.7
20260508060909 44 202 0.9 0.9 0.00 0.00 0.00 93 1006.7
20260508060341 44 202 1.7 1.7 0.00 0.00 0.00 93 1006.7
20260508055751 43 112 0.9 0.9 0.00 0.00 0.00 93 1006.7
20260508055141 43 112 0.0 0.0 0.00 0.00 0.00 93 1006.7
20260508054544 43 112 1.7 1.7 0.00 0.00 0.00 93 1006.7
20260508052737 42 112 0.0 0.0 0.00 0.00 0.00 92 1006.7
20260508052132 42 112 0.0 0.0 0.00 0.00 0.00 92 1006.7
20260508051526 42 112 0.0 0.0 0.00 0.00 0.00 92 1006.7
20260508050945 43 112 0.0 0.0 0.00 0.00 0.00 92 1006.7
20260508050309 43 112 0.0 0.0 0.00 0.00 0.00 93 1006.7
20260508045724 43 112 0.0 0.0 0.00 0.00 0.00 92 1006.7
20260508045127 43 112 0.0 0.0 0.00 0.00 0.00 92 1006.7
20260508044542 43 112 0.0 0.0 0.00 0.00 0.00 92 1006.7
20260508043936 43 112 0.0 0.0 0.00 0.00 0.00 92 1006.7
20260508043347 43 112 0.0 0.0 0.00 0.00 0.00 92 1006.7
20260508042723 43 112 0.0 0.0 0.00 0.00 0.00 92 1006.7
20260508042141 44 112 0.0 0.0 0.00 0.00 0.00 91 1006.7
20260508041532 44 112 0.0 0.0 0.00 0.00 0.00 91 1006.7
20260508040318 45 112 0.0 0.0 0.00 0.00 0.00 92 1006.7
20260508035120 45 112 0.0 0.0 0.00 0.00 0.00 91 1006.0
20260508034526 45 112 0.0 0.0 0.00 0.00 0.00 91 1006.0
20260508033916 45 112 0.0 0.0 0.00 0.00 0.00 91 1006.0
20260508033321 45 112 0.0 0.0 0.00 0.00 0.00 90 1006.0
20260508032734 46 112 0.0 0.0 0.00 0.00 0.00 90 1006.0
20260508032146 46 112 0.0 0.0 0.00 0.00 0.00 90 1006.0
20260508031526 46 112 0.0 0.0 0.00 0.00 0.00 90 1006.0
20260508030931 46 112 0.0 0.0 0.00 0.00 0.00 90 1006.0
20260508030311 46 112 0.0 0.0 0.00 0.00 0.00 89 1006.0
20260508025719 46 112 0.0 0.0 0.00 0.00 0.00 89 1006.0
20260508025114 46 112 0.0 0.0 0.00 0.00 0.00 88 1006.0
20260508024525 47 112 0.0 0.0 0.00 0.00 0.00 88 1005.0
20260508023946 47 112 0.0 0.0 0.00 0.00 0.00 87 1005.0
20260508023341 47 112 0.0 0.0 0.00 0.00 0.00 87 1005.0
20260508022723 47 112 0.0 0.0 0.00 0.00 0.00 87 1005.0
20260508021515 48 112 0.0 0.0 0.00 0.00 0.00 86 1005.0
20260508020945 48 112 0.0 0.0 0.00 0.00 0.00 85 1005.0
20260508020349 48 112 0.0 0.0 0.00 0.00 0.00 85 1005.0
20260508015738 49 112 0.0 0.0 0.00 0.00 0.00 84 1005.0
20260508015145 49 112 0.0 0.0 0.00 0.00 0.00 83 1005.0
20260508014517 49 112 0.0 0.0 0.00 0.00 0.00 81 1005.0
20260508012725 50 112 0.0 0.0 0.00 0.00 0.00 80 1004.0
20260508011528 50 112 0.0 0.0 0.00 0.00 0.00 79 1004.0
20260508010935 50 112 0.0 0.0 0.00 0.00 0.00 76 1004.0
20260508010349 51 112 0.0 0.0 0.00 0.00 0.00 78 1004.0
20260508005736 51 112 0.0 0.0 0.00 0.00 0.00 75 1004.0
20260508003908 53 112 0.0 0.0 0.00 0.00 0.00 72 1004.0
20260508003340 54 112 0.0 0.0 0.00 0.00 0.00 67 1004.0
20260508002734 54 112 0.0 0.0 0.00 0.00 0.00 70 1004.0
20260508002110 55 112 0.0 0.0 0.00 0.00 0.00 69 1004.0
20260508001532 55 112 0.0 0.0 0.00 0.00 0.00 66 1003.0
20260508000949 56 112 0.0 0.0 0.00 0.00 0.00 68 1003.0
20260508000335 56 112 0.0 0.0 0.00 0.00 0.00 69 1003.0
20260507235747 56 112 0.0 0.0 0.00 0.00 0.00 68 1003.0
20260507235119 57 112 0.0 0.0 0.00 0.00 0.00 66 1003.0
20260507234551 57 112 0.0 0.0 0.00 0.00 0.00 66 1003.0
20260507233938 57 112 0.0 0.0 0.00 0.00 0.00 65 1003.0
20260507233347 58 112 0.0 0.0 0.00 0.00 0.00 65 1003.0
20260507231535 59 112 0.0 0.0 0.00 0.00 0.00 62 1003.0
20260507225745 59 338 1.7 1.7 0.00 0.00 0.00 53 1003.0
20260507225120 60 45 1.7 1.7 0.00 0.00 0.00 59 1003.0
20260507224527 60 338 0.9 0.9 0.00 0.00 0.00 56 1003.0
20260507223918 61 202 0.9 0.9 0.00 0.00 0.00 58 1003.0
20260507223338 61 45 0.0 0.0 0.00 0.00 0.00 48 1003.0
20260507222719 62 248 0.0 0.0 0.00 0.00 0.00 49 1003.0
20260507221516 65 248 1.7 1.7 0.00 0.00 0.00 45 1003.0
20260507220312 64 292 0.9 0.9 0.00 0.00 0.00 47 1003.0
20260507215738 63 248 1.7 1.7 0.00 0.00 0.00 45 1003.0
20260507215144 61 135 0.0 0.0 0.00 0.00 0.00 49 1003.0
20260507213944 61 248 1.7 1.7 0.00 0.00 0.00 51 1003.0
20260507212737 61 112 0.0 0.0 0.00 0.00 0.00 51 1003.0
20260507211532 60 112 0.9 0.9 0.00 0.00 0.00 56 1002.0
20260507210928 60 112 0.9 0.9 0.00 0.00 0.00 54 1002.0
20260507210344 60 112 0.0 0.0 0.00 0.00 0.00 51 1002.0
20260507204547 61 292 0.0 0.0 0.00 0.00 0.00 52 1002.0
20260507202737 63 248 3.5 3.5 0.00 0.00 0.00 49 1003.0
20260507202152 63 225 1.7 1.7 0.00 0.00 0.00 49 1003.0
20260507201538 62 90 1.7 1.7 0.00 0.00 0.00 49 1003.0
20260507200938 61 248 1.7 1.7 0.00 0.00 0.00 51 1003.0
20260507195752 59 112 1.7 1.7 0.00 0.00 0.00 54 1003.0
20260507195151 59 202 2.6 3.5 0.00 0.00 0.00 53 1003.0
20260507194514 60 248 2.6 2.6 0.00 0.00 0.00 56 1003.0
20260507193951 60 248 0.9 0.9 0.00 0.00 0.00 54 1003.0
20260507192732 60 248 0.9 0.9 0.00 0.00 0.00 51 1003.0
20260507192146 60 68 0.9 0.9 0.00 0.00 0.00 52 1003.0
20260507191535 60 248 4.3 4.3 0.00 0.00 0.00 50 1004.0
20260507190936 60 225 3.5 3.5 0.00 0.00 0.00 52 1004.0
20260507185724 59 68 1.7 1.7 0.00 0.00 0.00 53 1004.0
20260507185150 59 112 1.7 1.7 0.00 0.00 0.00 52 1004.0
20260507184549 58 248 6.1 6.1 0.00 0.00 0.00 54 1004.0
20260507183952 59 225 5.2 5.2 0.00 0.00 0.00 53 1004.0
20260507183308 59 68 0.0 0.0 0.00 0.00 0.00 53 1004.0
20260507182714 59 135 0.9 0.9 0.00 0.00 0.00 53 1004.0
20260507182150 60 248 4.3 4.3 0.00 0.00 0.00 53 1004.0
20260507181510 60 90 0.9 0.9 0.00 0.00 0.00 53 1003.0
20260507180928 60 112 0.9 0.9 0.00 0.00 0.00 51 1003.0
20260507180324 60 270 0.9 0.9 0.00 0.00 0.00 49 1003.0
20260507174520 60 180 0.9 0.9 0.00 0.00 0.00 49 1004.0
20260507173945 59 248 2.6 2.6 0.00 0.00 0.00 50 1004.0
20260507172732 58 225 1.7 1.7 0.00 0.00 0.00 54 1004.0
20260507172129 59 248 1.7 1.7 0.00 0.00 0.00 52 1004.0
20260507170911 58 90 1.7 1.7 0.00 0.00 0.00 51 1004.0
20260507170321 58 225 0.0 0.0 0.00 0.00 0.00 51 1004.0
20260507165750 58 68 0.9 0.9 0.00 0.00 0.00 52 1004.0
20260507165135 58 68 0.9 0.9 0.00 0.00 0.00 53 1004.0
20260507163923 58 90 1.7 1.7 0.00 0.00 0.00 52 1004.0
20260507162722 58 135 0.0 0.0 0.00 0.00 0.00 49 1004.0
20260507162152 57 202 0.0 0.0 0.00 0.00 0.00 54 1004.0
20260507161555 57 68 1.7 1.7 0.00 0.00 0.00 54 1004.0
20260507160923 57 112 1.7 1.7 0.00 0.00 0.00 54 1004.0
20260507160346 57 68 1.7 1.7 0.00 0.00 0.00 53 1004.0
20260507155731 57 68 3.5 4.3 0.00 0.00 0.00 53 1004.0
20260507155123 57 90 0.9 0.9 0.00 0.00 0.00 54 1004.0
20260507154519 56 90 0.9 0.9 0.00 0.00 0.00 56 1004.0
20260507153911 56 68 4.3 5.2 0.00 0.00 0.00 54 1004.0
20260507153316 56 68 1.7 1.7 0.00 0.00 0.00 56 1004.0
20260507152750 55 112 1.7 1.7 0.00 0.00 0.00 57 1004.0
20260507151534 55 68 0.9 0.9 0.00 0.00 0.00 57 1004.0
20260507150347 54 90 2.6 3.5 0.00 0.00 0.00 61 1004.0
20260507145715 54 112 5.2 5.2 0.00 0.00 0.00 60 1004.0
20260507145111 54 68 0.9 0.9 0.00 0.00 0.00 58 1004.0
20260507144515 54 90 3.5 3.5 0.00 0.00 0.00 59 1004.0
20260507143939 54 112 0.0 0.0 0.00 0.00 0.00 60 1004.0
20260507143320 53 68 0.0 0.0 0.00 0.00 0.00 60 1004.0
20260507142123 53 90 1.7 1.7 0.00 0.00 0.00 61 1004.0
20260507141518 53 68 1.7 1.7 0.00 0.00 0.00 63 1004.0
20260507140926 52 158 4.3 5.2 0.00 0.00 0.00 65 1004.0
20260507140342 52 112 4.3 4.3 0.00 0.00 0.00 67 1004.0
20260507135144 52 112 2.6 2.6 0.00 0.00 0.00 66 1005.0
20260507134519 52 112 1.7 1.7 0.00 0.00 0.00 68 1005.0
20260507133319 52 112 0.0 0.0 0.00 0.00 0.00 73 1005.0
20260507132743 52 68 1.7 1.7 0.00 0.00 0.00 73 1005.0
20260507132122 52 68 0.0 0.0 0.00 0.00 0.00 72 1005.0
20260507130911 52 68 0.0 0.0 0.00 0.00 0.00 77 1005.0
20260507130312 51 68 0.0 0.0 0.00 0.00 0.00 80 1005.0
20260507124550 51 68 0.0 0.0 0.00 0.00 0.00 75 1005.0
20260507123943 51 68 0.9 0.9 0.00 0.00 0.00 77 1005.0
20260507123343 51 68 0.0 0.0 0.00 0.00 0.00 83 1005.0
20260507122748 51 68 0.0 0.0 0.00 0.00 0.00 86 1005.0
20260507122127 51 68 0.0 0.0 0.00 0.00 0.00 85 1005.0